DW4844 Weather Reports


Display with metric or nautical units.
time (UTC)temp
F
wind
direction
speed
MPH
gust
MPH
rain 1hr
in
rain 24hr
in
rain mn
in
humidity
%
barometer
mb
20260506170217 45 0.0 0.0 0.00 0.00 0.00 61 1014.0
20260506165217 46 0.0 0.0 0.00 0.00 0.00 57 1014.0
20260506164217 46 0.0 0.0 0.00 0.00 0.00 58 1013.9
20260506163237 46 0.0 0.0 0.00 0.00 0.00 58 1013.9
20260506162217 46 0.0 0.0 0.00 0.00 0.00 58 1013.8
20260506161217 47 0.0 0.0 0.00 0.00 0.00 57 1013.9
20260506160217 47 0.0 0.0 0.00 0.00 0.00 57 1013.8
20260506155217 47 0.0 0.0 0.00 0.00 0.00 59 1013.9
20260506154217 46 0.0 0.0 0.00 0.00 0.00 59 1013.9
20260506153217 46 0.0 0.0 0.00 0.00 0.00 59 1013.9
20260506152217 46 0.0 0.0 0.00 0.00 0.00 60 1013.9
20260506151237 47 0.0 0.0 0.00 0.00 0.00 60 1013.9
20260506150217 47 0.0 0.0 0.00 0.00 0.00 59 1014.0
20260506145217 46 0.0 0.0 0.00 0.00 0.00 59 1014.0
20260506144217 47 0.0 0.0 0.00 0.00 0.00 57 1014.1
20260506143217 47 0.0 0.0 0.00 0.00 0.00 57 1014.2
20260506142217 48 0.0 0.0 0.00 0.00 0.00 56 1014.0
20260506141217 48 0.0 0.0 0.00 0.00 0.00 55 1014.0
20260506140217 48 0.0 0.0 0.00 0.00 0.00 56 1014.0
20260506135217 48 0.0 0.0 0.00 0.00 0.00 57 1014.1
20260506134217 47 0.0 0.0 0.00 0.00 0.00 58 1014.3
20260506133217 47 0.0 0.0 0.00 0.00 0.00 59 1014.3
20260506132217 48 0.0 0.0 0.00 0.00 0.00 57 1014.2
20260506131217 48 0.0 0.0 0.00 0.00 0.00 57 1014.3
20260506130217 47 0.0 0.0 0.00 0.00 0.00 57 1014.2
20260506125217 46 0.0 0.0 0.00 0.00 0.00 59 1014.2
20260506124237 48 0.0 0.0 0.00 0.00 0.00 58 1014.3
20260506123217 47 0.0 0.0 0.00 0.00 0.00 58 1014.3
20260506122217 47 0.0 0.0 0.00 0.00 0.00 57 1014.3
20260506121337 47 0.0 0.0 0.00 0.00 0.00 59 1014.2
20260506120217 46 0.0 0.0 0.00 0.00 0.00 60 1014.4
20260506115237 46 0.0 0.0 0.00 0.00 0.00 61 1014.4
20260506114217 46 0.0 0.0 0.00 0.00 0.00 62 1014.3
20260506113217 45 0.0 0.0 0.00 0.00 0.00 66 1014.3
20260506112217 45 0.0 0.0 0.00 0.00 0.00 68 1014.4
20260506111237 45 0.0 0.0 0.00 0.00 0.00 69 1014.3
20260506110217 46 0.0 0.0 0.00 0.00 0.00 67 1014.4
20260506105217 47 0.0 0.0 0.00 0.00 0.00 60 1014.2
20260506104217 46 0.0 0.0 0.00 0.00 0.00 63 1014.2
20260506103217 47 0.0 0.0 0.00 0.00 0.00 62 1014.2
20260506102217 47 0.0 0.0 0.00 0.00 0.00 57 1014.1
20260506101217 46 0.0 0.0 0.00 0.00 0.00 60 1014.1
20260506100217 45 0.0 0.0 0.00 0.00 0.00 62 1014.2
20260506095217 46 0.0 0.0 0.00 0.00 0.00 61 1014.3
20260506094217 46 0.0 0.0 0.00 0.00 0.00 61 1014.3
20260506093217 46 0.0 0.0 0.00 0.00 0.00 59 1014.3
20260506092217 46 0.0 0.0 0.00 0.00 0.00 57 1014.3
20260506091217 46 0.0 0.0 0.00 0.00 0.00 58 1014.2
20260506090217 45 0.0 0.0 0.00 0.00 0.00 58 1014.3
20260506085217 46 0.0 0.0 0.00 0.00 0.00 57 1014.3
20260506084257 46 0.0 0.0 0.00 0.00 0.00 60 1014.2
20260506083216 45 0.0 0.0 0.00 0.00 0.00 58 1014.3
20260506082217 45 0.0 0.0 0.00 0.00 0.00 58 1014.2
20260506081217 45 0.0 0.0 0.00 0.00 0.00 60 1014.2
20260506080237 44 0.0 0.0 0.00 0.00 0.00 59 1014.3
20260506073217 43 0.0 0.0 0.00 0.00 0.00 66 1014.2
20260506072217 43 0.0 0.0 0.00 0.00 0.00 66 1014.2
20260506071216 43 0.0 0.0 0.00 0.00 0.00 66 1014.2
20260506070217 43 0.0 0.0 0.00 0.00 0.00 66 1014.3
20260506062217 41 0.0 0.0 0.00 0.00 0.00 70 1014.2
20260506061337 40 0.0 0.0 0.00 0.00 0.00 74 1014.2
20260506060217 39 0.0 0.0 0.00 0.00 0.00 79 1014.3
20260506051257 33 0.0 0.0 0.00 0.00 0.00 93 1014.0
20260506050216 32 0.0 0.0 0.00 0.00 0.00 92 1013.9
20260506044216 31 0.0 0.0 0.00 0.00 0.00 92 1013.8
20260506043217 31 0.0 0.0 0.00 0.00 0.00 92 1013.9
20260506042216 32 0.0 0.0 0.00 0.00 0.00 92 1013.9
20260506041217 31 0.0 0.0 0.00 0.00 0.00 92 1013.9
20260506040217 31 0.0 0.0 0.00 0.00 0.00 92 1013.7
20260506035217 32 0.0 0.0 0.00 0.00 0.00 92 1013.7
20260506034216 31 0.0 0.0 0.00 0.00 0.00 92 1013.7
20260506033217 31 0.0 0.0 0.00 0.00 0.00 92 1013.8
20260506032216 31 0.0 0.0 0.00 0.00 0.00 91 1013.8
20260506031217 31 0.0 0.0 0.00 0.00 0.00 91 1013.7
20260506030217 31 0.0 0.0 0.00 0.00 0.00 92 1013.6
20260506025217 31 0.0 0.0 0.00 0.00 0.00 91 1013.7
20260506024216 31 0.0 0.0 0.00 0.00 0.00 91 1013.8
20260506023216 31 0.0 0.0 0.00 0.00 0.00 90 1013.9
20260506022216 31 0.0 0.0 0.00 0.00 0.00 90 1013.9
20260506021217 31 0.0 0.0 0.00 0.00 0.00 90 1014.0
20260506020217 32 0.0 0.0 0.00 0.00 0.00 90 1014.0
20260506015217 32 0.0 0.0 0.00 0.00 0.00 90 1014.1
20260506014217 32 0.0 0.0 0.00 0.00 0.00 90 1014.0
20260506013217 32 0.0 0.0 0.00 0.00 0.00 90 1013.9
20260506012216 32 0.0 0.0 0.00 0.00 0.00 89 1013.9
20260506011216 32 0.0 0.0 0.00 0.00 0.00 89 1013.8
20260506010216 32 0.0 0.0 0.00 0.00 0.00 88 1013.9
20260506005217 32 0.0 0.0 0.00 0.00 0.00 88 1013.8
20260506004217 32 0.0 0.0 0.00 0.00 0.00 88 1014.0
20260506003217 33 0.0 0.0 0.00 0.00 0.00 87 1014.0
20260506002216 33 0.0 0.0 0.00 0.00 0.00 87 1014.1
20260506001217 33 0.0 0.0 0.00 0.00 0.00 87 1013.9
20260506000219 34 0.0 0.0 0.00 0.00 0.00 87 1013.9
20260505235257 34 0.0 0.0 0.00 0.00 0.00 87 1013.9
20260505234216 34 0.0 0.0 0.00 0.00 0.00 87 1013.9
20260505233217 34 0.0 0.0 0.00 0.00 0.00 86 1013.9
20260505232237 34 0.0 0.0 0.00 0.00 0.00 87 1013.8
20260505231217 34 0.0 0.0 0.00 0.00 0.00 86 1013.9
20260505230217 34 0.0 0.0 0.00 0.00 0.00 86 1013.9
20260505225216 34 0.0 0.0 0.00 0.00 0.00 85 1013.9
20260505224217 34 0.0 0.0 0.00 0.00 0.00 84 1013.9
20260505223216 35 0.0 0.0 0.00 0.00 0.00 83 1013.9
20260505222216 35 0.0 0.0 0.00 0.00 0.00 82 1014.0
20260505221216 36 0.0 0.0 0.00 0.00 0.00 81 1013.9
20260505220217 36 0.0 0.0 0.00 0.00 0.00 81 1013.9
20260505215216 37 0.0 0.0 0.00 0.00 0.00 80 1013.9
20260505214217 37 0.0 0.0 0.00 0.00 0.00 80 1013.9
20260505213217 37 0.0 0.0 0.00 0.00 0.00 79 1013.9
20260505212217 37 0.0 0.0 0.00 0.00 0.00 78 1014.0
20260505211237 38 0.0 0.0 0.00 0.00 0.00 78 1014.0
20260505210216 38 0.0 0.0 0.00 0.00 0.00 77 1013.8
20260505205217 38 0.0 0.0 0.00 0.00 0.00 76 1013.9
20260505204216 39 0.0 0.0 0.00 0.00 0.00 76 1013.9
20260505203217 39 0.0 0.0 0.00 0.00 0.00 75 1013.8
20260505202217 39 0.0 0.0 0.00 0.00 0.00 75 1013.8
20260505201216 39 0.0 0.0 0.00 0.00 0.00 75 1013.8
20260505200257 40 0.0 0.0 0.00 0.00 0.00 75 1013.8
20260505195217 40 0.0 0.0 0.00 0.00 0.00 75 1013.7
20260505194217 40 0.0 0.0 0.00 0.00 0.00 76 1013.6
20260505193216 40 0.0 0.0 0.00 0.00 0.00 76 1013.7
20260505192217 41 0.0 0.0 0.00 0.00 0.00 75 1013.7
20260505191216 41 0.0 0.0 0.00 0.00 0.00 73 1013.6
20260505190217 42 0.0 0.0 0.00 0.00 0.00 72 1013.6
20260505185216 43 0.0 0.0 0.00 0.00 0.00 70 1013.4
20260505184216 44 0.0 0.0 0.00 0.00 0.00 68 1013.4
20260505183217 43 0.0 0.0 0.00 0.00 0.00 67 1013.3
20260505182217 43 0.0 0.0 0.00 0.00 0.00 66 1013.2
20260505181216 43 0.0 0.0 0.00 0.00 0.00 65 1013.2
20260505180216 43 0.0 0.0 0.00 0.00 0.00 65 1013.2
20260505175217 43 0.0 0.0 0.00 0.00 0.00 67 1013.2
20260505174217 43 0.0 0.0 0.00 0.00 0.00 64 1013.2
20260505173216 45 0.0 0.0 0.00 0.00 0.00 64 1013.2
20260505172216 45 0.0 0.0 0.00 0.00 0.00 65 1013.2
20260505171216 45 0.0 0.0 0.00 0.00 0.00 65 1013.2